This is the latest recevied weather packets stored in our database for station/object WP3OF-2. If no packets are shown the sender has not sent any weather packets the latest 10 day(s).
| Time | Temp. | Humidity | Pressure | Rain* | Wind** | Luminosity | Snow |
|---|---|---|---|---|---|---|---|
| 1788208263 | 21.67° C | 97% | 1025.6 hPa | 0 mm | - | 107 W/m² | - |
| 1788207962 | 21.67° C | 96% | 1025.2 hPa | 0 mm | - | 133 W/m² | - |
| 1788207662 | 21.67° C | 97% | 1025.2 hPa | 0 mm | - | 157 W/m² | - |
| 1788207361 | 21.11° C | 98% | 1025.2 hPa | 0 mm | - | 164 W/m² | - |
| 1788207056 | 21.11° C | 99% | 1025.2 hPa | 0 mm | - | 171 W/m² | - |
| 1788206752 | 21.67° C | 99% | 1024.9 hPa | 0 mm | - | 222 W/m² | - |
| 1788206452 | 21.67° C | 99% | 1024.9 hPa | 0 mm | - | 219 W/m² | - |
| 1788206148 | 21.67° C | 99% | 1025.6 hPa | 0 mm | - | 151 W/m² | - |
| 1788205842 | 21.67° C | 99% | 1025.6 hPa | 0 mm | - | 151 W/m² | - |
| 1788205537 | 21.67° C | 99% | 1025.6 hPa | 0 mm | - | 151 W/m² | - |
| 1788205232 | 21.67° C | 97% | 1025.2 hPa | 0 mm | - | 152 W/m² | - |
| 1788204928 | 21.67° C | 97% | 1025.6 hPa | 0 mm | - | 169 W/m² | - |
| 1788204622 | 21.67° C | 94% | 1025.2 hPa | 0 mm | - | 139 W/m² | - |
| 1788204317 | 21.67° C | 94% | 1025.2 hPa | 0 mm | - | 139 W/m² | - |
| 1788204012 | 21.67° C | 94% | 1025.6 hPa | 0 mm | - | 131 W/m² | - |
| 1788203703 | 22.22° C | 98% | 1026 hPa | 0 mm | - | 151 W/m² | - |
| 1788203398 | 22.22° C | 98% | 1026 hPa | 0 mm | - | 151 W/m² | - |
| 1788203112 | 22.22° C | 98% | 1026 hPa | 0 mm | - | 149 W/m² | - |
| 1788202722 | 22.22° C | 97% | 1026 hPa | 0 mm | - | 146 W/m² | - |
| 1788202417 | 22.22° C | 97% | 1026 hPa | 0 mm | - | 146 W/m² | - |
| 1788202116 | 22.22° C | 97% | 1025.6 hPa | 0 mm | - | 171 W/m² | - |
| 1788201812 | 22.22° C | 96% | 1026 hPa | 0 mm | - | 169 W/m² | - |
| 1788201507 | 22.22° C | 96% | 1026 hPa | 0 mm | - | 194 W/m² | - |
| 1788201206 | 22.78° C | 96% | 1026 hPa | 0 mm | - | 212 W/m² | - |
| 1788200906 | 22.22° C | 95% | 1026 hPa | 0 mm | - | 217 W/m² | - |
* Rain latest hour (hover to see other rain measurements)
** Current wind speed in m/s (hover to see current wind gust speed)